Theta_e
339 336 338 336 334 325 318 319 302 309 305 297 293 297 295 303 302 300 299 301 299 304 305 306 308 309 306 305 304 311 310 306 308 301 307 326 338 340 341 342 343 343 344 344 344 345 346 346 348 348 348 348 348 349 348 348 348 348 347 347 346 346 346 346 345 345 345 343 341 342 342 340 340 340 339 339 339 339 339 339 340 340 346 348 347 347 346 345 345 342 342 342 341 341 341 340 339
332 330 327 326 324 325 314 316 306 299 301 294 294 297 298 300 301 298 298 303 303 304 305 304 308 309 309 306 305 311 313 320 322 322 328 336 338 339 341 342 343 342 344 345 345 345 345 345 347 349 348 348 348 348 348 347 347 347 347 347 346 346 346 345 345 345 345 345 344 342 341 340 340 340 340 339 339 338 339 339 339 344 346 346 346 347 345 343 341 341 341 341 341 341 340 338 337
325 324 325 322 321 317 314 313 300 297 298 289 294 296 300 297 299 303 304 304 305 305 306 306 308 309 308 308 306 308 305 324 327 329 329 336 332 335 340 342 343 344 344 344 345 346 345 344 345 349 348 348 348 348 348 347 348 348 347 346 346 346 346 346 346 346 345 342 342 343 342 340 339 340 340 339 338 339 339 338 342 345 345 345 344 344 344 343 343 342 341 341 342 341 339 336 337
328 326 324 323 316 319 309 306 303 297 295 292 291 299 299 300 302 304 305 306 305 305 307 305 305 311 306 307 306 313 314 319 327 328 328 332 332 337 340 341 343 344 345 344 345 346 344 343 346 348 348 348 348 348 348 348 347 347 347 346 346 346 346 346 346 345 345 344 342 341 340 340 340 340 339 339 339 338 339 339 340 341 342 342 342 341 341 340 341 340 342 341 341 340 337 336 338
323 328 326 320 320 313 310 306 298 297 292 295 292 298 300 302 303 304 304 304 305 305 307 306 307 310 311 309 310 310 313 324 326 330 329 335 338 338 340 342 342 343 343 344 345 345 343 343 346 348 348 348 349 348 348 349 347 346 346 346 346 345 345 345 346 345 345 343 342 340 340 341 340 340 339 338 337 337 337 340 340 341 340 342 342 342 342 343 343 342 342 340 339 339 336 337 338
325 324 331 326 312 315 309 300 299 294 297 299 295 296 300 304 304 303 304 305 305 305 306 306 305 307 305 311 316 311 318 315 325 330 333 332 336 338 341 343 340 341 342 344 346 344 343 342 346 347 348 347 348 348 347 347 347 346 346 345 346 345 345 345 345 345 344 344 341 340 340 341 340 339 338 338 337 336 337 339 342 342 342 341 341 342 344 343 342 342 341 341 339 338 336 337 337
324 323 320 322 318 315 304 299 296 295 295 301 298 299 301 303 304 304 303 303 305 305 307 305 307 305 305 310 316 321 326 327 327 329 335 336 338 339 342 341 340 340 343 344 346 345 343 341 347 347 348 348 348 347 347 347 347 346 345 345 345 346 345 345 345 345 345 343 342 340 340 339 340 339 338 338 338 337 337 339 339 339 338 339 338 339 341 341 340 340 340 339 339 337 336 337 337
325 318 319 309 307 305 300 300 296 297 298 301 302 300 302 304 304 303 302 302 300 301 303 305 305 304 304 310 308 320 329 332 333 336 337 336 339 339 342 339 338 338 343 344 346 344 343 342 347 347 348 348 348 348 347 347 346 346 345 345 345 345 345 345 345 345 345 343 341 339 338 339 339 338 338 338 337 337 337 338 339 339 339 340 340 340 339 340 339 339 338 337 338 337 337 336 336
323 318 321 312 303 306 299 296 296 299 299 301 300 304 309 304 304 303 301 302 302 304 302 303 305 302 303 310 311 317 325 332 333 334 336 336 338 341 340 340 338 339 342 345 345 344 344 340 346 347 347 348 348 347 347 346 346 346 345 345 345 345 345 345 345 345 344 343 341 339 338 339 339 338 338 337 337 336 336 337 337 337 338 338 338 338 337 336 336 336 336 336 337 337 336 335 335
318 313 308 308 307 301 298 296 296 299 299 301 300 302 302 303 303 304 302 301 302 303 305 306 305 302 304 307 311 316 321 331 332 332 335 336 337 339 340 341 342 341 343 345 345 345 344 345 340 344 347 347 347 347 347 347 346 346 345 345 345 345 345 345 345 344 344 344 340 337 337 338 338 338 337 337 336 336 337 338 338 337 337 337 335 335 334 334 334 335 334 335 336 336 335 334 334
309 315 316 305 301 297 299 295 297 299 299 301 301 303 303 303 303 304 303 302 303 303 305 305 302 302 302 312 314 323 327 330 330 329 334 336 337 336 337 342 342 342 343 344 344 345 343 343 342 340 344 344 346 347 347 347 346 346 345 345 345 345 345 344 344 344 344 343 339 337 337 337 337 337 336 336 336 336 335 335 335 335 334 334 334 333 332 335 335 335 334 335 335 334 333 333 333
310 306 311 301 297 299 296 297 297 298 299 299 299 303 303 303 304 301 302 301 301 303 303 304 303 306 301 307 312 319 326 327 329 332 334 337 336 337 338 339 342 342 345 344 343 344 344 343 342 340 336 338 343 345 346 346 347 346 347 346 345 345 345 344 344 343 344 343 339 336 336 337 337 336 335 335 335 335 335 335 334 335 333 333 333 333 333 332 331 332 332 333 333 333 332 332 332
313 313 303 299 300 297 297 296 297 298 298 298 299 303 303 303 301 302 301 302 301 301 303 304 307 305 301 306 314 320 320 324 331 332 333 334 335 335 339 338 342 341 345 344 343 343 344 344 343 342 337 331 334 339 341 343 345 346 346 346 345 345 344 344 343 343 343 341 338 336 335 337 337 336 335 335 335 334 334 334 333 333 333 333 333 333 332 331 331 331 332 332 332 332 332 331 331
314 315 309 301 303 300 298 298 298 297 297 299 301 303 304 302 302 303 301 300 301 301 305 307 306 306 304 309 311 312 316 327 332 333 334 334 335 336 339 337 340 339 344 344 342 343 343 343 343 343 339 339 341 335 335 339 342 345 345 344 344 344 344 344 343 343 341 339 337 336 335 336 336 335 335 335 334 333 333 333 333 333 333 333 332 332 332 330 329 329 331 332 332 331 330 330 330
317 313 307 304 298 298 299 296 298 296 295 300 301 302 302 305 304 302 302 301 301 306 307 308 311 305 298 301 306 309 319 330 331 332 333 335 335 335 337 339 340 340 341 341 342 342 343 343 343 343 342 342 343 342 342 338 336 340 342 341 342 343 343 343 342 339 338 337 335 332 331 330 330 332 335 334 334 332 331 332 332 332 332 332 332 331 331 330 328 330 330 331 330 330 329 329 329
318 310 307 301 296 297 301 298 298 296 296 300 301 302 301 302 304 302 302 303 304 310 306 302 308 303 307 316 314 317 327 329 331 331 332 333 334 334 336 337 337 338 338 340 341 341 343 343 342 343 343 343 342 342 341 341 332 333 338 339 339 340 340 340 338 336 333 330 329 327 326 325 324 324 324 326 329 329 328 326 329 330 332 332 331 331 330 329 328 329 330 329 328 327 327 326 326
316 314 302 297 293 297 299 300 297 293 297 300 302 301 299 299 304 303 303 309 303 303 304 306 304 308 305 315 324 326 329 329 328 330 330 329 329 329 332 333 333 336 338 338 338 340 341 341 340 341 342 343 342 342 342 342 336 331 333 333 334 336 335 335 334 327 325 325 325 324 324 324 323 323 324 324 324 324 323 324 329 330 330 330 330 329 329 328 328 329 328 326 325 323 322 322 323
316 303 299 296 295 298 302 300 299 302 299 298 300 301 300 298 301 303 306 304 302 303 302 305 306 305 309 322 328 327 328 327 327 327 326 326 326 325 327 330 331 332 331 334 337 340 339 340 339 341 341 341 342 342 342 342 337 336 340 338 337 332 328 327 331 332 330 328 323 325 325 323 324 324 323 325 323 323 322 321 324 328 329 329 328 328 329 328 327 327 326 324 323 322 320 314 315
308 300 299 294 300 300 301 301 302 300 299 300 301 300 300 300 301 301 299 299 299 300 301 303 302 304 305 312 325 325 325 325 326 326 325 325 325 324 326 328 329 330 331 331 333 337 339 339 340 340 341 341 340 340 341 341 340 341 340 339 338 331 332 335 337 334 334 329 327 329 327 327 326 324 322 323 322 320 320 320 322 325 327 327 327 327 327 326 326 324 323 322 322 321 314 311 312
306 304 297 299 303 300 302 303 301 302 304 301 300 301 300 301 301 303 299 298 300 298 298 299 301 302 303 308 323 323 323 323 324 324 324 325 325 325 325 325 327 327 331 332 333 337 337 337 338 339 340 341 340 340 341 341 341 341 340 340 338 338 337 338 337 337 336 332 332 333 332 331 325 321 321 321 321 319 318 318 320 321 322 322 322 322 324 323 322 321 321 322 316 313 309 310 309
306 302 300 302 300 300 301 303 302 302 302 303 301 301 301 302 302 301 300 297 298 300 302 302 302 303 304 304 317 321 321 321 322 323 324 324 325 326 327 326 326 326 330 332 333 334 335 337 339 339 339 339 339 339 340 339 340 340 339 339 340 339 337 337 337 337 337 336 335 333 335 328 324 321 319 319 318 318 317 316 315 313 313 312 314 312 311 312 312 312 313 312 310 310 308 308 309
307 299 301 301 301 299 301 301 301 300 301 303 301 299 299 303 303 301 300 296 296 300 304 303 305 306 305 304 314 320 320 320 322 322 323 323 324 325 326 326 328 328 329 330 330 332 333 335 336 338 337 339 339 338 338 338 339 338 338 338 337 338 338 337 337 336 336 336 336 334 335 330 324 321 319 319 317 317 315 314 312 311 310 310 309 307 307 309 310 312 311 309 307 307 306 306 306
298 301 300 301 301 301 303 302 300 299 303 301 300 302 302 301 301 301 300 299 301 304 304 305 306 308 307 307 313 318 319 320 321 321 323 323 324 325 326 327 327 327 327 330 331 331 333 334 334 335 335 337 337 337 337 337 336 338 338 338 337 337 337 336 335 336 336 335 336 334 333 330 325 322 321 320 317 315 313 312 311 311 311 309 307 308 310 313 312 310 308 307 306 305 305 305 305
301 297 300 300 302 301 302 300 301 300 300 300 301 303 302 300 298 302 300 302 303 304 305 304 305 309 309 307 310 315 319 320 320 321 323 324 324 325 326 326 327 327 326 329 330 331 331 333 333 334 335 335 335 336 336 336 336 337 337 336 337 335 336 336 336 336 336 335 334 333 332 331 327 324 324 322 318 316 315 315 313 313 312 311 311 314 314 312 310 309 308 306 305 304 304 303 303
298 297 301 302 302 301 300 299 299 301 302 301 302 300 299 302 300 299 300 302 303 304 304 304 304 307 309 309 309 311 315 318 319 320 322 322 324 326 326 326 327 327 326 327 328 331 332 332 332 332 333 334 334 335 335 333 332 333 336 337 336 333 336 336 336 336 336 334 335 334 333 331 328 327 326 325 321 319 318 317 315 314 314 313 315 314 313 311 310 308 307 305 304 303 301 301 301
299 300 300 300 301 301 300 300 301 301 302 302 302 299 301 301 302 299 301 303 304 304 303 303 304 303 305 309 310 310 313 315 318 319 321 322 323 324 325 325 326 326 326 327 327 328 332 333 333 332 332 334 333 333 332 332 332 332 333 335 337 335 336 336 336 336 335 335 334 333 332 332 330 328 327 327 325 324 324 318 316 315 314 314 315 313 312 310 309 308 307 305 304 302 300 300 299
303 300 301 301 300 300 301 302 301 302 303 301 299 299 300 300 300 295 302 303 303 303 303 303 303 302 302 305 309 309 311 313 316 319 320 321 322 322 323 325 325 326 326 327 328 327 328 330 330 329 331 329 330 331 331 333 333 333 332 330 332 336 336 336 336 335 335 334 334 334 333 332 331 328 328 328 327 327 325 318 316 316 315 315 315 313 312 310 308 307 306 304 302 300 299 299 298
303 301 300 299 301 302 301 302 300 300 300 301 301 298 301 300 301 297 301 303 304 303 302 302 302 301 302 303 304 307 309 312 315 317 318 320 321 322 322 324 325 325 326 326 327 328 328 329 328 328 330 330 328 330 329 329 330 331 331 331 331 333 336 334 335 336 334 334 334 334 334 333 331 331 329 329 327 327 325 319 317 316 315 314 314 312 311 310 308 307 306 303 301 299 298 297 297
301 301 296 298 299 299 300 300 300 301 300 301 302 298 296 297 295 301 302 302 303 303 303 302 302 302 302 302 303 303 306 308 312 316 318 320 322 323 323 325 326 326 327 327 326 327 327 326 327 327 329 330 328 328 329 329 329 331 330 331 331 333 332 334 335 335 334 334 334 335 334 333 331 331 330 329 326 327 326 321 319 317 315 315 313 312 310 309 307 305 304 302 300 298 297 297 297
303 301 300 297 296 295 300 301 300 299 300 301 300 288 291 296 300 302 302 302 302 302 300 301 302 303 303 303 302 303 303 306 309 313 316 318 321 323 323 325 325 326 325 325 327 327 328 328 328 328 328 329 328 328 327 328 329 329 331 332 331 331 330 329 332 334 334 335 335 335 334 333 331 332 332 331 329 327 326 323 321 317 315 314 312 311 309 307 305 303 301 300 300 297 296 295 294
296 298 299 294 291 291 300 300 299 298 300 300 301 290 291 297 301 302 302 303 301 300 299 300 302 303 303 303 302 303 304 305 307 312 315 317 319 321 323 324 325 325 323 324 326 327 327 327 328 328 327 328 327 328 327 327 327 326 325 328 331 330 330 330 328 332 334 334 335 335 334 333 332 332 333 332 331 328 327 325 321 318 316 313 312 311 308 307 305 303 301 299 297 296 295 295 294
298 292 289 293 292 295 299 301 299 296 298 301 299 291 293 297 299 302 302 302 302 299 299 300 302 302 303 303 303 303 304 305 306 308 314 316 318 319 320 321 324 325 324 324 325 326 326 327 326 326 327 327 327 327 327 328 325 323 324 322 326 330 329 329 330 331 332 333 333 333 334 334 333 332 332 332 331 329 327 325 322 319 317 314 311 311 309 307 306 304 302 300 297 295 295 294 293
297 292 293 290 293 294 296 298 301 300 298 300 297 291 295 296 299 301 300 301 300 299 300 301 302 302 302 301 302 302 304 304 305 306 308 314 316 317 318 319 320 324 324 324 324 324 326 326 325 325 326 327 327 327 326 325 324 322 323 323 325 325 328 328 330 332 332 332 331 332 334 334 333 333 333 332 331 329 326 325 323 321 318 315 312 311 309 307 305 303 301 299 297 295 295 293 293
291 295 290 297 292 292 291 296 299 301 299 294 297 293 294 297 299 300 300 301 300 299 300 301 302 301 301 301 302 303 303 303 304 305 306 308 310 313 316 316 318 320 322 322 323 324 325 325 324 325 326 326 326 325 324 323 322 321 320 320 320 321 323 326 327 328 329 329 329 330 331 332 332 333 333 332 331 330 327 325 323 321 317 315 312 310 308 307 305 302 299 298 297 296 295 294 293
290 290 290 291 296 295 293 292 296 298 297 295 294 294 295 297 300 301 300 301 301 300 300 301 301 301 301 302 302 303 303 303 304 306 307 307 308 309 311 314 315 317 319 320 321 323 323 323 322 321 322 323 323 321 321 321 320 318 319 317 317 318 320 321 325 325 325 327 329 329 329 331 331 333 333 330 329 328 327 325 322 320 316 315 312 309 307 306 304 302 299 298 298 296 295 294 293
295 297 293 293 292 292 292 295 298 298 294 293 293 293 295 297 298 300 301 301 300 300 300 300 300 301 301 301 302 303 303 304 306 306 308 308 308 308 308 310 314 315 316 318 318 320 321 321 320 320 320 321 321 320 319 318 316 316 315 313 314 315 318 318 322 325 324 325 327 330 330 330 329 330 332 331 329 327 327 325 322 320 317 315 312 309 306 305 303 300 299 298 297 295 294 294 294
296 297 296 293 293 294 295 295 296 297 294 292 294 295 295 296 298 299 299 299 298 298 299 300 300 301 301 301 302 302 303 305 307 309 308 307 308 308 308 308 310 313 313 314 315 317 318 319 319 318 319 320 319 318 316 316 315 313 312 313 314 314 317 317 320 322 324 323 325 329 330 329 329 329 329 329 329 325 326 324 322 320 318 315 312 309 307 306 304 301 299 298 296 294 294 293 292
296 294 293 291 295 290 296 295 296 297 294 291 293 292 293 295 297 299 300 299 298 299 300 300 300 300 302 302 302 302 303 306 309 309 308 307 306 307 307 306 307 309 311 312 313 315 316 317 318 318 318 319 318 317 316 315 315 315 314 313 313 313 315 316 317 319 321 324 326 327 327 328 329 328 328 329 326 325 323 323 322 320 317 315 313 310 308 305 303 300 298 297 297 295 293 293 292
297 293 292 291 291 295 296 295 297 297 295 290 292 291 293 296 298 299 299 299 300 300 301 301 301 300 301 302 302 303 303 304 308 309 308 306 307 306 305 305 306 308 310 311 311 312 313 315 316 316 317 317 317 316 315 315 315 314 314 311 314 310 312 314 315 318 318 321 323 325 326 327 327 327 326 325 324 323 322 321 321 320 318 315 311 309 307 304 302 300 298 297 295 296 294 294 292
294 293 290 288 296 293 289 294 295 296 293 290 291 291 293 296 297 298 299 299 300 301 301 302 302 301 301 302 302 302 302 304 307 308 307 306 306 306 304 305 305 306 307 307 309 311 313 313 314 315 315 315 315 314 313 314 314 313 312 313 312 313 312 312 314 316 318 319 320 322 323 325 326 326 326 325 323 322 321 320 320 319 317 314 312 308 306 304 301 300 300 299 297 293 292 292 293
294 295 293 292 295 294 292 291 294 295 296 296 292 291 292 295 295 296 299 301 299 300 300 300 301 303 303 304 304 305 302 303 305 307 307 306 305 305 305 305 305 305 306 306 307 310 312 313 313 314 314 314 314 313 313 313 312 311 312 311 309 307 307 309 309 309 314 319 319 319 320 320 322 324 324 324 322 321 321 320 318 318 317 315 313 309 306 304 302 300 300 299 297 295 292 292 292
292 295 296 294 294 293 293 296 293 288 288 295 294 282 283 290 292 293 294 298 298 298 299 300 300 302 302 303 304 304 306 305 304 305 306 306 306 305 303 304 304 304 305 306 307 308 309 310 312 312 312 312 312 312 313 313 311 311 310 308 307 306 306 307 309 311 311 313 316 317 317 317 318 320 322 323 322 320 320 319 318 317 316 314 313 311 308 306 302 300 300 299 298 297 294 292 291
289 290 295 296 295 295 294 294 292 284 282 292 294 283 281 289 290 292 293 294 294 298 299 299 299 302 302 303 303 304 305 305 305 306 306 305 305 304 303 303 303 304 304 305 306 307 308 310 311 312 312 312 313 312 313 312 311 311 310 309 309 308 308 308 307 309 311 310 312 313 313 314 316 317 318 320 321 320 319 319 318 317 316 314 312 311 309 306 304 302 301 300 299 298 296 292 291
286 296 297 295 294 293 294 295 292 288 294 295 293 291 281 283 289 292 294 294 293 294 296 297 298 300 300 301 304 304 305 305 306 306 305 304 304 304 304 304 304 304 304 306 307 307 308 308 310 311 311 311 312 313 312 312 311 310 309 308 308 308 308 307 308 310 313 311 312 310 310 311 313 313 315 316 318 318 318 318 317 316 315 314 311 311 309 307 305 303 301 301 300 299 297 295 292
294 296 298 296 295 297 296 292 290 290 286 282 289 292 283 281 290 294 294 291 292 294 296 297 299 299 299 300 301 304 305 305 307 305 304 304 303 304 304 304 304 304 305 305 306 306 307 307 309 309 310 310 311 311 312 311 310 310 309 308 307 307 307 308 309 310 311 311 311 309 309 309 309 309 310 313 314 316 315 316 316 315 315 314 310 311 309 307 304 302 301 300 300 301 299 299 295
294 298 299 299 298 297 297 290 289 288 284 281 286 291 281 282 289 292 292 290 291 292 296 298 297 298 299 301 301 302 303 303 303 305 304 304 304 303 303 304 304 304 304 305 305 306 306 306 308 308 308 309 310 310 311 310 309 309 309 307 307 306 307 307 308 309 309 309 310 309 309 307 308 307 307 307 309 311 313 315 315 315 314 313 309 310 308 306 304 302 301 301 301 300 300 299 297
299 298 297 296 295 292 291 289 286 283 280 282 289 292 287 280 285 289 288 292 292 294 294 297 299 300 301 302 303 301 302 304 303 302 302 303 302 302 301 302 302 303 303 304 305 305 305 306 307 307 308 308 309 310 310 310 309 309 308 307 307 306 307 307 308 308 308 307 309 310 308 307 307 306 305 304 305 306 308 310 313 314 314 311 309 310 307 305 304 303 302 302 301 301 300 300 299
299 295 291 291 289 289 287 286 285 280 277 285 287 292 291 280 284 291 293 295 295 295 294 297 298 299 301 303 303 303 302 304 303 302 301 300 300 300 300 300 301 302 303 303 303 304 305 305 306 306 307 308 308 309 309 309 309 308 307 307 307 307 307 308 308 308 307 307 308 309 307 306 304 304 304 303 302 303 304 303 304 310 311 311 309 310 309 307 305 303 302 302 301 301 301 299 300
297 292 290 283 281 282 280 283 279 279 278 285 284 287 284 286 289 291 293 294 295 296 296 297 298 300 302 302 301 301 302 301 302 302 301 300 299 299 299 299 300 301 302 302 303 304 304 305 305 306 306 307 308 308 308 308 308 308 307 306 306 307 308 308 308 309 307 306 307 308 306 304 303 302 302 303 303 301 302 302 302 304 307 309 310 309 308 307 305 304 303 301 301 300 300 299 299
292 288 283 281 277 276 273 277 281 281 282 282 284 289 282 287 288 295 296 298 299 296 299 300 299 299 300 303 303 303 302 301 302 303 303 302 302 300 299 300 300 300 301 302 302 303 304 305 305 305 305 306 307 307 308 307 307 307 307 307 307 306 307 308 307 309 307 306 306 308 308 306 304 303 302 303 304 301 301 302 302 303 305 307 308 309 307 306 306 304 303 301 301 301 300 300 300
291 293 290 283 281 277 273 277 275 276 280 281 283 280 279 279 286 293 294 294 295 296 297 298 299 300 300 303 304 302 302 301 302 302 304 305 305 304 303 301 300 300 301 301 302 303 304 304 305 304 305 306 306 306 307 306 306 306 306 307 307 306 307 307 307 307 307 305 305 307 307 307 306 305 304 303 301 300 300 300 301 302 303 304 304 306 305 304 304 304 303 302 301 301 300 300 299
292 293 295 286 283 287 279 282 280 279 280 279 279 280 283 286 292 294 295 295 296 294 295 296 296 298 299 301 299 301 302 303 303 302 303 302 303 304 304 302 302 301 301 301 301 303 303 304 304 304 305 305 306 305 306 306 306 306 305 306 306 306 305 306 306 305 305 305 306 306 307 307 306 305 305 302 300 300 299 298 299 301 301 302 302 304 304 303 301 301 299 298 299 300 298 296 295
289 291 284 288 293 290 285 280 283 280 278 277 282 284 287 289 294 295 296 296 295 295 293 294 295 296 297 298 298 299 301 301 300 301 301 302 302 303 303 302 301 301 301 301 302 302 303 303 303 304 304 304 305 305 306 305 305 305 305 305 305 305 305 305 305 305 306 306 306 306 307 306 306 305 304 302 300 298 298 298 298 299 299 300 300 300 300 300 299 296 296 296 296 294 295 295 293
292 283 288 294 295 293 285 278 281 278 275 278 280 279 283 281 280 290 292 291 292 292 294 295 295 295 295 297 297 299 301 301 302 302 302 302 302 302 301 301 301 302 301 301 301 302 303 304 303 303 303 303 304 305 305 305 304 304 304 304 305 305 305 305 305 305 306 306 306 305 305 305 305 304 304 302 301 298 297 296 295 295 295 296 297 296 296 296 296 295 294 295 296 294 294 292 293
292 289 298 290 281 281 283 281 274 273 273 276 279 280 282 284 285 288 288 290 290 292 292 293 294 294 295 295 297 299 301 301 301 302 302 303 302 302 301 301 300 300 300 301 301 302 303 302 303 303 303 304 304 305 305 305 304 304 304 303 303 303 303 304 304 305 306 306 306 305 305 304 303 302 301 299 298 295 295 294 293 292 293 293 293 294 294 293 294 294 293 294 293 293 293 293 292
297 296 293 295 288 283 281 281 281 279 274 273 277 278 279 288 288 290 289 290 291 292 292 292 293 295 297 299 302 302 302 301 301 302 302 302 302 301 301 300 300 300 300 301 301 302 302 303 302 302 302 302 303 304 304 304 304 304 304 303 303 303 302 303 302 303 304 305 305 304 304 302 302 300 299 297 296 295 294 293 293 293 292 292 291 291 292 292 291 293 292 292 292 293 293 292 290
284 285 285 288 286 289 285 285 282 278 275 274 274 276 281 288 291 291 292 292 293 292 295 296 297 298 300 301 301 301 301 302 301 304 303 303 303 300 299 298 298 297 297 298 300 301 301 301 301 302 302 302 302 303 303 304 302 302 301 301 301 301 301 301 300 301 300 301 302 301 300 300 299 298 297 295 294 294 293 291 292 292 292 291 291 291 291 292 291 292 291 291 291 292 292 290 290
290 289 287 289 285 282 279 279 288 283 280 276 276 277 284 291 294 295 293 293 296 296 296 297 295 296 297 300 300 300 301 301 302 303 304 303 302 299 298 297 295 295 296 297 299 299 300 301 301 301 301 302 301 302 303 302 301 302 300 300 299 298 299 299 298 297 297 297 298 298 298 297 297 295 295 295 294 293 291 290 291 291 291 291 291 292 291 292 292 291 292 293 291 291 291 289 289
Wind_Speed
8 8 6 5 5 5 4 2 2 2 2 2 3 2 2 2 3 4 4 4 3 2 3 4 5 6 5 2 4 11 7 6 3 0 1 3 6 7 9 12 11 11 12 9 8 7 7 9 11 11 11 11 12 11 11 11 11 12 12 12 12 12 13 13 13 14 14 15 14 14 15 15 15 15 14 14 14 13 14 14 13 14 18 19 18 19 20 21 20 20 19 20 20 20 19 18 17
7 7 6 3 4 1 2 5 1 3 3 5 4 6 3 3 2 3 4 8 4 2 2 4 5 3 2 4 2 5 11 9 7 5 6 8 7 5 10 11 11 12 10 9 8 7 6 6 10 12 12 12 12 12 13 12 12 12 12 12 12 12 13 13 13 14 14 14 15 15 14 14 15 14 14 15 14 14 14 14 13 17 17 17 18 19 20 19 19 19 19 20 20 19 19 17 16
6 6 6 5 4 2 5 2 2 2 2 5 3 4 4 4 5 9 9 7 6 4 4 4 2 1 2 3 2 7 3 8 10 9 6 8 9 7 9 10 10 10 12 8 8 8 6 5 7 11 12 13 13 12 11 12 11 11 12 12 12 12 13 12 13 14 14 14 14 15 15 15 14 14 14 14 14 14 14 13 16 18 17 17 18 19 20 19 19 19 19 19 20 19 18 16 15
5 5 3 2 2 2 2 2 3 3 3 5 4 1 3 7 8 9 6 5 4 3 0 2 1 1 3 5 4 4 5 5 6 8 6 8 6 9 9 10 10 9 8 8 9 8 7 6 8 10 11 12 12 12 11 11 11 11 11 12 12 11 12 12 13 13 14 14 14 15 14 15 15 15 14 14 14 14 14 13 15 15 16 16 16 17 17 17 18 19 19 20 19 18 17 16 15
3 4 5 2 1 2 1 2 2 3 4 3 4 3 4 8 9 7 5 4 3 3 3 1 2 1 2 1 3 2 4 7 8 6 4 1 13 8 9 8 9 9 8 8 9 9 7 9 9 9 11 11 12 12 11 10 11 11 10 12 12 11 12 12 13 13 14 14 14 15 14 14 14 15 15 14 13 13 13 14 15 14 15 16 16 16 17 18 18 19 20 19 18 18 16 15 14
6 4 3 1 1 0 1 2 0 6 3 4 4 3 5 8 8 7 6 6 3 3 3 1 3 0 2 4 3 3 1 1 3 6 5 5 10 8 9 4 8 8 10 8 9 8 7 9 9 9 10 11 13 12 11 11 11 10 10 11 12 11 11 12 12 13 13 14 14 14 14 14 13 14 14 14 13 12 13 15 17 16 15 15 16 17 18 19 19 20 19 19 18 18 16 15 14
2 1 1 1 2 1 2 2 5 5 4 3 2 4 6 7 8 7 6 4 3 3 1 2 1 1 2 1 5 4 6 2 2 3 5 7 7 6 9 4 7 9 8 8 9 8 9 10 10 10 9 10 12 12 12 11 11 10 10 11 12 11 12 12 12 13 13 13 13 14 14 14 13 13 14 13 13 12 14 14 14 13 14 14 15 16 16 17 18 18 18 18 18 18 16 15 14
2 0 0 1 2 2 4 1 6 3 2 4 4 5 6 8 5 5 5 2 2 1 1 2 1 1 2 4 3 1 8 9 10 10 9 6 5 6 5 5 7 8 9 8 8 7 9 11 10 9 9 10 11 12 12 11 10 10 10 11 12 11 11 12 13 14 13 13 13 14 14 14 13 13 13 13 12 12 13 14 14 14 14 15 15 16 16 17 16 17 18 18 18 17 16 15 15
2 2 0 1 2 1 2 6 3 4 3 4 4 5 7 5 4 5 3 5 4 4 4 2 2 0 2 6 5 3 4 6 7 8 8 6 2 2 5 5 7 7 8 8 8 8 7 9 10 9 8 9 10 12 12 11 10 10 9 11 11 11 12 12 13 13 14 14 13 13 14 14 13 13 13 13 12 12 13 13 13 13 14 14 15 15 15 16 17 17 17 17 17 17 15 15 15
1 1 1 2 3 2 1 4 5 2 4 3 5 3 4 2 3 3 4 4 4 3 4 3 3 0 2 6 5 3 4 7 7 8 7 6 4 4 3 3 5 9 10 10 8 7 6 7 9 9 9 8 8 9 10 10 9 9 9 9 10 11 12 12 13 14 14 14 13 13 13 14 13 13 13 12 12 11 14 15 14 14 15 15 15 15 16 16 17 17 17 16 16 15 15 15 15
1 2 1 1 3 3 1 5 4 3 4 3 4 4 3 2 3 1 2 6 2 3 2 4 1 1 1 5 3 2 8 8 8 10 9 8 4 5 5 3 6 7 9 8 8 8 7 6 8 9 8 8 7 8 9 10 9 9 8 9 10 11 12 12 13 13 14 14 13 13 13 14 14 13 13 12 12 12 12 13 13 13 14 14 14 15 16 17 17 16 16 15 15 15 15 15 15
2 2 1 2 5 3 3 2 6 4 4 3 3 3 1 3 2 2 1 2 3 4 3 4 0 1 2 4 2 4 8 8 7 7 10 9 6 5 5 2 5 6 10 8 8 8 7 6 5 7 10 8 7 7 8 8 8 8 7 8 10 11 12 12 13 13 13 14 14 13 13 14 14 13 13 13 12 12 13 13 13 13 14 14 15 14 15 16 15 15 16 15 14 15 15 15 14
1 1 3 3 3 3 1 1 3 3 4 3 5 3 2 3 3 2 3 1 4 3 4 4 1 1 1 3 2 6 8 7 8 7 6 6 6 4 2 5 4 6 9 8 7 9 9 7 6 5 6 9 7 7 7 8 8 7 7 8 8 9 11 12 12 13 14 14 14 13 12 12 13 13 13 13 13 13 13 13 13 14 14 14 14 15 15 15 15 15 15 15 15 15 15 15 14
0 2 1 2 1 1 1 1 2 1 1 5 5 5 3 3 2 0 3 3 2 0 1 2 0 2 2 5 3 5 5 7 10 7 5 5 4 4 4 4 5 6 8 7 6 8 8 8 7 6 6 6 5 6 7 7 7 7 7 7 8 8 10 11 11 12 14 14 13 11 10 11 12 13 13 13 14 13 13 12 13 13 14 14 14 14 15 15 15 15 15 14 15 15 15 14 14
0 2 1 2 2 1 1 1 3 1 2 4 4 6 4 2 1 3 1 0 3 0 2 3 1 0 1 1 4 6 8 9 9 7 6 5 5 4 4 5 4 2 8 7 5 7 7 6 8 7 6 5 6 5 4 6 8 8 9 7 7 9 9 10 11 11 12 12 13 12 12 12 11 11 12 12 11 11 11 12 14 14 14 15 15 15 15 15 15 14 15 15 15 15 15 14 13
1 2 0 1 3 0 0 1 3 1 3 3 5 6 5 3 2 1 2 1 2 1 0 1 2 1 3 6 3 11 12 9 7 6 5 7 5 4 3 5 4 1 4 5 6 5 6 7 5 7 7 6 6 6 6 6 5 9 10 9 7 9 10 11 11 11 12 12 13 14 13 11 10 9 11 9 11 12 11 9 13 13 14 15 15 15 15 15 14 15 14 15 15 15 14 13 12
1 0 0 1 3 2 2 0 1 1 4 4 4 5 4 3 1 2 1 0 1 1 1 2 2 1 3 4 7 11 10 8 7 6 5 5 6 4 5 4 3 4 0 3 5 5 5 5 5 5 5 6 6 6 6 6 6 8 8 10 10 10 11 12 12 12 11 11 11 12 11 8 6 6 6 6 9 8 10 11 12 14 15 14 15 15 15 14 15 14 15 16 15 15 12 11 11
0 0 1 2 5 0 2 1 2 7 5 4 5 5 4 4 2 1 1 0 1 3 2 4 5 6 7 6 7 8 8 9 7 8 6 5 4 5 5 4 4 4 2 1 3 4 6 5 7 6 6 6 5 5 4 5 6 7 7 7 7 9 9 10 9 8 8 7 11 9 7 7 5 5 6 7 6 7 9 11 12 13 15 13 14 15 15 15 15 16 16 15 13 10 9 6 6
2 1 2 4 0 1 4 5 9 3 6 6 4 4 4 4 7 3 2 3 4 3 3 4 4 7 5 5 9 8 7 7 8 7 9 8 7 7 6 5 5 5 5 3 3 3 4 4 5 7 7 7 6 5 5 6 7 6 6 6 6 8 9 8 7 7 6 7 7 5 6 6 7 6 4 6 6 9 9 10 11 12 13 13 14 15 15 15 15 14 13 11 9 7 5 4 4
1 1 2 1 2 4 6 7 5 4 2 7 5 3 3 4 5 3 2 3 7 6 4 5 5 6 8 7 8 9 7 7 7 8 9 9 8 7 7 7 7 6 7 6 5 4 4 5 4 4 7 7 7 6 6 5 7 6 6 6 6 6 7 7 7 6 6 6 6 4 4 6 8 7 12 13 9 6 7 10 11 11 11 11 12 9 11 13 14 13 10 6 5 4 4 6 6
0 1 0 1 4 2 5 6 5 3 4 2 5 3 1 3 2 3 3 3 4 6 6 7 8 9 12 11 10 9 9 8 8 7 9 9 8 6 7 7 7 6 6 7 6 6 5 5 6 5 4 6 6 6 7 6 6 6 6 6 7 6 6 6 7 6 6 6 5 3 7 7 7 7 8 6 6 5 5 5 5 5 5 5 7 5 5 5 5 3 2 5 5 4 5 5 5
0 1 3 2 5 4 3 5 5 3 3 3 5 4 3 3 3 2 3 3 3 0 2 3 8 10 14 13 11 9 10 10 9 8 10 11 11 10 8 6 6 5 6 7 6 6 6 4 6 6 4 6 6 5 6 6 6 5 6 6 6 6 7 6 6 6 6 6 5 3 6 7 7 7 8 8 7 6 5 5 5 4 4 4 4 6 4 3 3 2 4 5 6 6 6 6 6
1 0 3 4 2 3 1 2 2 4 1 3 3 1 3 2 2 4 4 6 2 2 5 7 6 9 13 11 10 9 10 11 11 12 11 10 10 9 10 8 8 8 6 7 7 6 6 6 6 6 5 6 7 6 5 6 6 5 6 6 7 6 6 6 6 6 6 6 5 5 6 6 7 7 7 8 8 7 6 6 6 5 4 5 6 6 4 3 4 6 6 5 5 6 6 6 6
1 1 1 3 4 5 3 2 1 1 5 3 1 1 0 2 3 0 6 6 5 4 6 7 6 8 11 11 10 12 12 12 13 12 11 11 11 11 9 9 7 6 5 7 8 7 8 10 7 7 6 6 6 5 4 5 5 6 7 7 6 7 7 7 7 7 6 7 6 6 6 7 8 7 7 8 8 7 7 6 7 7 6 7 6 6 5 6 6 6 6 5 5 4 5 5 6
2 2 3 1 2 2 3 2 2 1 0 2 3 1 2 2 1 3 3 4 4 3 4 5 5 5 7 8 8 8 8 7 8 8 6 5 7 8 7 6 6 7 7 8 8 10 10 9 7 8 7 7 6 6 6 6 4 3 4 7 6 7 6 7 7 6 6 6 6 7 6 6 6 7 7 7 8 8 8 7 7 6 7 7 6 6 6 6 7 7 6 6 6 6 6 5 6
3 3 4 3 3 2 2 3 1 0 2 1 0 2 4 3 1 3 8 7 5 4 4 5 5 5 5 8 8 8 8 9 8 8 10 8 6 8 9 8 7 9 9 8 8 8 10 11 11 10 8 8 8 7 6 6 5 4 4 5 6 6 6 6 6 6 6 6 6 5 7 6 6 7 7 6 8 8 8 8 8 7 6 6 6 6 6 6 7 7 7 7 6 6 5 6 6
1 4 3 4 4 3 2 1 2 1 1 1 1 2 0 2 4 5 1 2 6 6 5 5 6 5 5 5 7 7 9 9 11 8 6 6 7 8 9 9 8 8 9 9 8 7 7 11 11 9 8 6 7 8 6 7 7 7 6 3 2 6 6 7 7 6 6 6 6 7 6 7 6 6 7 6 6 6 6 8 8 7 6 6 6 6 6 6 5 6 7 7 7 7 6 6 6
2 5 5 4 2 2 1 1 3 1 1 1 1 3 3 4 1 9 4 1 3 5 4 5 5 5 5 7 6 7 8 8 8 8 11 10 10 9 9 10 10 8 10 9 8 7 7 10 10 9 9 8 7 8 7 8 8 8 7 6 5 3 6 5 6 6 6 6 6 6 6 7 7 6 7 7 6 6 6 7 7 7 7 7 6 6 6 5 6 6 6 6 6 6 7 6 6
4 4 3 4 3 2 4 3 3 1 1 1 0 3 5 3 5 16 6 5 4 4 5 5 6 5 6 6 7 6 7 7 8 9 11 11 9 9 11 10 10 9 6 9 9 8 7 6 9 9 9 9 8 8 7 7 6 8 7 7 7 6 5 6 6 7 6 6 6 7 7 6 8 7 6 8 7 6 6 7 5 6 6 6 7 7 5 5 5 6 7 7 6 6 7 7 6
1 1 1 4 3 3 7 3 3 1 1 2 1 2 5 9 17 12 7 7 5 5 5 5 5 6 6 6 6 7 6 6 8 10 8 8 9 9 11 9 9 9 6 7 9 10 8 5 6 6 8 9 8 7 7 7 6 7 8 7 7 8 7 5 6 6 7 7 7 8 7 7 6 8 7 8 7 6 7 7 6 5 6 6 7 8 6 5 5 6 7 7 6 7 7 6 7
2 3 0 1 3 2 7 3 5 3 1 2 1 2 7 6 6 2 5 7 7 5 5 5 6 6 6 7 6 6 7 8 9 9 9 9 8 8 10 8 9 9 6 6 10 11 10 9 8 8 9 9 8 8 7 7 6 7 6 8 8 7 7 7 5 7 7 7 8 8 8 7 7 7 9 8 7 7 8 8 7 6 6 5 7 7 7 5 5 6 6 7 6 6 6 6 7
1 3 2 3 2 1 1 2 6 3 1 3 2 3 9 13 3 2 4 3 2 4 4 5 6 5 5 6 7 6 7 8 9 8 9 10 9 8 10 10 9 10 11 10 9 9 11 9 9 8 10 10 10 11 8 7 6 7 8 7 6 8 7 7 7 5 6 7 7 7 9 8 8 7 8 8 8 7 8 8 8 7 7 6 6 7 7 7 5 5 5 7 8 6 8 6 6
1 3 1 3 3 3 1 2 3 3 4 1 5 5 3 1 3 2 4 5 4 3 4 5 6 5 5 5 6 6 6 7 8 9 9 9 9 8 9 10 11 11 10 10 10 9 10 11 11 11 11 12 10 10 9 7 6 5 6 6 7 6 8 7 6 6 5 6 7 7 8 9 8 9 7 9 9 8 7 8 8 9 8 7 7 6 7 6 7 6 6 5 6 8 8 9 6
3 3 3 1 5 4 3 2 1 0 1 3 5 4 6 7 3 2 2 4 5 5 6 6 6 5 5 5 6 7 7 7 10 11 11 11 9 10 9 10 11 11 10 11 11 12 12 11 11 11 9 11 10 9 8 7 6 5 5 5 5 7 7 7 7 7 6 6 6 7 8 9 9 9 8 8 8 9 9 9 8 10 9 8 8 7 7 7 5 6 8 5 7 7 8 10 9
4 4 4 5 1 2 0 3 3 1 1 2 2 8 9 9 11 8 5 6 7 7 8 7 8 7 6 6 5 7 8 9 10 10 12 12 11 11 9 8 9 9 9 11 10 10 10 9 9 10 9 9 8 7 6 5 4 4 4 4 4 4 5 5 7 7 6 6 6 6 7 8 9 10 8 8 8 8 9 9 9 10 9 9 9 8 8 8 7 6 8 8 5 4 6 8 10
3 2 5 3 3 4 4 2 0 1 2 4 5 8 7 8 10 8 7 7 10 9 7 6 7 7 7 7 7 7 7 9 8 8 12 12 11 11 10 8 8 8 9 9 10 10 10 9 8 9 9 9 7 6 7 7 6 7 7 4 5 5 4 6 5 7 6 6 6 8 7 7 8 10 9 8 9 8 8 9 10 11 10 10 9 9 9 9 11 10 7 10 9 5 4 6 8
2 1 1 2 2 2 3 3 2 2 1 5 7 8 10 10 11 10 7 6 5 5 7 8 8 8 8 8 8 9 9 11 7 8 11 13 13 12 10 9 8 7 8 9 10 10 11 12 11 12 10 9 9 9 9 9 9 7 5 8 9 7 6 5 5 5 7 6 6 7 9 7 8 9 9 9 9 9 9 8 10 10 10 11 11 11 12 13 12 10 9 7 12 9 5 6 6
1 4 5 5 1 2 2 2 2 2 0 2 3 6 9 8 7 8 6 6 10 10 12 11 10 8 8 9 10 10 9 3 5 6 6 9 9 9 9 9 8 10 10 11 12 13 12 11 12 11 10 10 11 11 10 10 9 10 10 10 8 7 7 7 7 6 6 6 7 7 6 8 9 9 8 8 9 10 9 9 10 11 10 8 9 10 10 8 9 8 9 7 4 10 8 9 9
3 1 2 1 4 1 4 4 0 1 1 6 3 6 10 8 8 11 10 12 11 10 12 12 11 10 9 9 10 9 6 7 7 7 6 7 7 7 7 8 9 12 11 12 11 9 9 10 10 10 10 11 10 10 10 10 8 7 7 5 8 4 3 4 4 5 4 6 6 7 7 7 8 8 8 7 8 9 10 10 9 10 11 9 8 7 9 9 9 10 11 11 9 2 4 7 11
1 1 1 3 0 2 2 1 2 1 2 3 4 8 14 11 10 15 17 16 14 11 10 10 9 9 9 11 9 6 8 9 8 9 9 8 9 9 7 7 9 7 6 6 7 10 9 10 9 10 10 10 10 9 9 7 6 5 5 4 4 5 3 3 4 5 6 6 7 6 6 7 8 8 9 8 7 9 10 10 9 9 10 10 11 10 10 10 10 10 9 6 8 10 7 8 8
4 4 2 2 1 1 1 1 2 2 2 3 4 7 10 7 8 6 10 14 9 7 7 9 8 8 9 7 5 6 7 6 8 7 8 9 9 10 12 10 6 7 7 8 8 9 8 10 9 9 8 9 8 7 7 7 7 6 5 4 4 4 3 4 5 6 7 8 7 8 8 5 6 8 9 9 8 9 9 10 10 10 10 11 10 11 11 12 13 12 13 12 13 12 10 7 9
3 6 8 5 4 1 3 3 4 2 2 0 1 5 6 2 3 7 6 2 3 5 8 9 6 7 7 9 10 7 6 6 5 6 8 10 11 8 6 6 8 7 8 8 8 8 6 6 7 6 6 7 7 7 8 8 8 8 8 8 7 6 7 7 11 11 8 8 10 6 6 7 6 5 7 9 9 8 9 10 10 10 10 10 10 10 10 10 12 13 13 12 12 10 13 10 10
1 2 4 2 2 1 2 1 2 2 1 2 1 1 8 8 10 7 7 7 7 5 7 7 6 9 9 11 9 8 9 7 5 4 3 7 7 7 6 7 7 8 6 5 5 6 6 6 7 7 7 7 7 7 9 8 8 8 10 10 8 9 10 7 4 3 4 4 3 5 6 5 6 6 6 7 8 9 9 10 11 11 11 11 11 10 11 13 12 13 12 12 12 10 10 12 13
2 2 3 2 1 2 0 1 2 3 1 2 3 2 2 9 17 2 2 2 5 6 6 6 7 9 10 7 7 8 7 6 6 6 6 5 7 9 9 8 8 8 6 6 6 6 7 6 6 6 5 6 5 6 9 8 8 7 7 7 8 8 8 6 6 5 4 4 6 6 5 6 6 5 6 6 7 8 9 9 10 11 11 10 10 10 12 11 11 10 13 15 13 11 13 13 13
1 1 3 1 2 3 1 1 1 1 2 6 1 2 0 5 14 6 2 7 7 10 10 8 11 10 8 6 5 5 4 5 6 5 5 5 5 7 7 7 6 6 6 7 6 6 5 5 5 5 6 5 5 6 8 7 7 8 8 7 7 5 5 5 5 7 7 7 8 6 6 6 6 5 5 5 6 7 8 9 9 10 10 10 10 9 9 10 13 13 12 11 10 9 10 9 11
2 2 0 3 2 1 1 1 0 0 0 6 4 5 3 7 6 14 1 4 7 5 8 10 4 4 4 5 5 5 4 4 4 4 4 4 4 4 5 7 6 6 6 6 5 5 5 5 5 6 6 5 6 6 8 8 7 8 8 8 8 6 5 5 5 7 8 8 9 9 7 7 6 6 5 4 5 5 7 8 10 11 10 10 10 10 10 10 10 10 11 11 9 9 8 9 11
4 3 4 1 1 1 1 1 1 1 4 7 8 8 5 7 5 9 6 2 5 4 1 2 3 4 4 4 4 4 4 3 3 4 4 4 4 4 5 6 6 5 5 5 5 5 5 5 5 6 6 6 6 7 8 9 8 7 8 8 9 9 8 8 8 7 7 7 9 9 8 7 7 7 5 6 5 5 5 6 9 9 9 9 10 9 9 10 10 11 11 12 9 9 6 8 7
1 2 2 2 1 2 0 0 1 1 6 1 2 8 6 8 3 7 7 1 0 1 2 3 3 3 2 1 3 4 5 5 5 5 5 5 3 3 3 5 6 5 5 5 5 5 5 5 6 7 6 7 7 8 8 8 8 8 7 8 10 9 8 8 10 9 8 9 9 9 7 7 7 6 6 6 7 6 6 5 4 8 9 8 10 9 9 10 10 10 9 10 10 11 8 6 5
1 1 1 2 1 2 1 1 2 4 6 0 2 2 2 16 7 6 5 6 3 2 3 2 4 4 4 4 5 4 3 5 5 5 5 5 5 6 6 6 6 7 7 6 7 6 6 6 7 9 9 8 8 8 9 8 8 9 8 8 7 7 8 8 8 9 7 8 8 8 8 8 7 7 8 8 8 8 7 7 7 6 7 8 9 10 10 11 10 10 11 12 11 12 12 11 10
3 5 5 5 2 3 4 4 2 2 0 3 2 1 6 5 4 9 13 15 13 4 1 1 1 2 3 4 4 4 3 4 5 6 6 6 6 5 6 7 7 7 7 8 7 7 7 7 8 9 9 8 7 8 8 9 9 9 8 8 7 7 7 8 7 8 7 8 8 8 8 8 8 9 8 9 8 8 7 7 7 6 6 7 8 9 8 9 10 10 11 12 13 12 12 13 12
9 4 8 7 6 3 4 3 5 4 3 1 4 1 7 3 2 2 2 4 5 4 1 1 2 3 1 1 2 4 5 5 4 5 6 7 7 8 8 8 7 7 8 8 7 8 7 8 8 9 8 8 8 8 8 9 9 9 8 8 8 7 8 7 7 6 6 7 7 8 7 7 8 7 7 7 7 9 9 8 8 7 6 6 6 7 8 7 8 9 9 11 11 10 12 11 10
4 4 1 3 8 0 3 1 0 0 1 1 1 6 2 4 3 5 4 6 8 6 6 4 6 1 1 1 4 5 5 6 5 5 5 5 6 6 6 7 7 7 8 8 8 8 8 8 8 9 9 9 10 9 9 9 8 7 7 8 9 8 7 7 7 6 6 6 6 7 7 7 7 7 6 7 8 9 9 8 8 8 7 7 7 7 7 7 7 8 7 7 10 7 8 7 6
5 4 6 6 1 1 1 1 1 2 2 9 4 7 9 3 11 11 14 15 15 9 5 3 3 3 2 4 6 6 6 5 5 5 6 7 6 6 7 6 6 7 8 10 10 9 9 9 9 9 8 7 9 9 8 8 8 8 9 9 8 8 8 8 8 7 8 6 6 6 7 7 7 7 7 7 8 8 7 8 8 8 7 7 7 7 6 6 5 5 6 7 8 6 8 8 6
5 3 5 1 3 3 3 4 0 1 6 8 3 9 13 3 11 2 2 7 7 3 8 8 6 5 6 8 7 3 4 7 8 8 8 7 6 6 6 6 7 8 8 8 9 8 8 8 9 9 8 10 8 8 8 8 9 9 9 9 9 9 9 9 8 7 7 7 7 6 6 6 8 8 8 7 8 9 8 9 7 7 7 7 7 7 6 6 6 6 6 7 8 7 7 5 7
4 3 1 4 2 4 2 2 5 4 4 4 4 7 10 8 14 5 10 2 5 5 5 6 6 5 4 6 5 2 3 4 5 6 6 5 5 6 6 6 6 6 6 7 7 8 7 7 7 8 10 9 9 8 8 8 9 8 8 9 10 9 8 8 7 7 7 9 10 8 8 7 6 7 8 7 7 7 8 8 8 7 7 6 5 6 6 5 6 7 7 7 6 7 7 7 6
0 2 1 1 2 1 6 6 1 2 5 2 12 5 8 8 5 2 5 5 5 5 5 5 3 1 1 1 2 4 4 4 4 5 5 5 6 6 7 7 7 8 7 7 7 7 8 8 8 7 6 6 7 9 9 10 9 9 8 8 8 9 8 8 7 8 9 10 9 9 9 7 8 7 7 7 8 8 8 8 7 7 7 7 6 6 6 6 5 6 7 7 7 8 8 8 7
0 0 2 0 0 1 3 3 4 5 3 4 4 10 9 9 4 6 7 3 2 4 4 5 5 2 1 1 2 5 5 5 5 3 4 5 5 5 5 5 5 4 5 5 6 7 7 6 6 7 9 8 9 9 8 9 7 8 8 10 10 9 9 8 7 8 8 8 7 8 8 8 6 8 7 8 8 8 8 7 8 8 8 8 8 8 7 7 7 7 6 7 7 8 9 7 7
11 12 11 11 7 3 4 8 1 1 4 3 4 13 12 9 4 1 2 4 6 5 5 3 6 9 10 9 6 4 4 5 4 4 3 4 3 3 3 3 4 5 5 6 6 6 7 8 8 7 7 8 9 9 9 7 7 7 9 9 9 7 8 8 8 8 9 8 7 7 6 6 8 7 8 9 9 8 7 8 8 8 8 8 8 8 7 8 8 7 8 6 7 8 8 8 8
Wind_Direction
295 274 249 235 233 247 312 234 315 227 219 154 111 91 70 89 122 103 99 190 112 40 39 64 30 32 32 39 31 77 36 48 6 91 138 126 151 147 116 119 125 126 119 121 120 116 109 117 126 129 127 124 122 122 118 120 120 112 108 104 100 94 91 89 86 82 81 81 79 79 78 80 80 82 84 85 87 91 89 87 89 89 89 90 88 85 83 79 77 77 77 77 77 74 72 70 68
282 282 273 252 259 282 241 165 254 278 210 88 63 93 125 95 207 104 108 63 51 87 61 45 55 39 330 20 349 145 50 45 63 84 88 122 126 131 124 128 133 124 124 129 131 121 115 116 125 126 130 132 129 125 126 127 113 108 106 107 105 102 98 93 86 83 82 82 83 80 80 81 85 85 87 90 90 91 92 94 92 82 77 79 83 85 83 83 81 81 81 80 77 75 73 71 73
299 312 293 215 254 217 305 220 258 277 142 88 73 80 135 140 87 69 64 72 80 81 71 66 76 97 311 243 69 26 92 93 91 96 105 135 139 141 139 136 130 129 129 136 131 125 123 120 126 129 133 135 133 129 122 117 116 110 112 111 109 107 102 95 91 90 89 87 84 83 83 83 83 85 87 91 93 92 91 96 92 88 89 88 84 83 86 85 84 85 84 80 77 75 74 75 75
281 267 269 287 279 146 259 208 248 331 20 115 75 124 110 85 78 79 79 87 73 87 147 102 133 1 353 27 22 114 92 83 95 120 133 170 133 138 140 133 126 129 125 129 132 124 120 128 134 132 133 131 129 127 123 120 118 118 114 115 114 110 106 97 95 93 92 91 90 87 86 86 87 88 89 89 90 90 95 95 93 94 96 94 88 85 85 85 85 83 82 80 77 75 76 76 72
262 256 216 274 238 247 281 255 281 33 38 347 116 122 102 95 101 92 84 84 59 53 18 85 95 355 71 53 10 42 76 102 113 130 114 21 123 146 136 133 133 124 131 132 122 117 122 127 130 130 134 135 128 127 123 120 120 121 121 119 117 112 107 102 97 92 93 93 93 91 90 89 90 93 94 94 91 89 95 91 91 87 85 85 86 88 89 90 90 87 80 79 79 76 75 74 69
241 273 196 147 235 47 327 301 282 74 39 0 86 87 83 99 104 111 102 72 71 74 13 47 28 96 109 47 5 85 267 145 140 94 100 116 122 143 123 157 134 137 137 130 113 121 129 129 127 130 141 142 132 129 128 128 127 126 125 123 121 116 109 108 100 92 91 93 93 93 92 92 92 92 93 93 95 98 97 95 93 97 98 96 96 94 88 85 82 81 80 80 79 78 77 76 70
292 282 193 232 273 111 251 273 67 92 345 12 63 108 88 95 109 118 110 104 83 97 16 36 351 294 123 122 71 66 20 36 123 79 102 111 122 131 118 173 143 138 128 116 115 119 130 131 135 139 145 147 137 133 135 134 133 130 128 128 125 122 118 110 104 97 93 91 92 93 94 94 92 91 93 96 96 97 97 94 96 95 95 92 91 87 86 85 85 85 85 83 80 80 80 75 63
244 78 195 217 283 173 249 69 51 53 45 43 24 74 98 106 128 122 148 145 162 156 199 53 84 347 72 222 100 50 68 55 101 94 101 112 94 122 150 163 146 136 119 121 111 114 126 133 141 141 147 146 138 139 138 137 137 136 131 130 130 128 122 113 105 98 93 91 92 93 95 94 93 91 89 90 92 95 96 92 91 92 95 94 96 91 87 87 88 87 86 85 81 81 80 69 58
245 202 103 49 257 195 280 87 101 77 129 94 63 49 92 120 139 115 139 84 143 99 172 167 92 298 124 82 75 136 81 89 97 100 94 97 93 182 164 160 143 132 116 101 108 121 120 134 139 143 143 144 143 142 140 139 140 137 135 133 130 128 118 112 104 99 95 92 92 94 95 95 93 92 91 92 93 94 99 100 100 97 92 91 88 89 90 90 91 91 89 88 83 80 73 65 57
288 128 295 259 292 236 250 77 87 52 93 76 119 108 92 131 124 147 122 157 113 136 68 68 105 341 174 109 124 160 136 120 127 114 115 128 164 194 159 166 129 123 115 118 125 125 120 127 133 142 143 144 147 143 141 139 139 138 135 130 130 129 122 117 109 105 101 97 96 96 96 96 95 95 94 92 92 96 94 90 93 97 92 90 90 92 95 97 94 90 89 87 83 76 70 63 58
254 173 182 352 252 250 39 94 104 119 96 97 89 118 118 122 115 101 142 92 133 104 126 124 143 217 248 86 78 35 124 136 139 134 139 149 172 177 161 175 130 132 117 128 129 121 128 127 134 138 142 146 148 148 142 143 143 144 139 136 131 129 127 122 114 110 108 105 101 101 101 101 100 100 100 98 96 94 95 102 103 97 97 95 97 99 97 91 90 90 91 88 79 78 72 67 60
259 213 114 274 282 66 21 51 104 93 119 133 114 125 142 127 130 124 92 128 128 133 142 178 234 21 205 128 125 162 137 148 142 139 151 150 176 204 142 183 136 129 127 131 130 129 136 129 135 138 140 148 151 152 147 145 145 143 142 139 134 134 131 126 119 113 109 106 104 104 106 106 106 105 104 104 101 99 97 98 103 102 106 105 100 98 97 95 98 97 96 93 84 80 78 72 64
241 281 197 238 297 23 7 35 61 130 125 200 136 135 137 128 167 169 141 1 107 167 142 178 96 147 333 84 130 137 150 157 131 147 142 153 175 173 209 146 152 134 121 133 142 138 141 149 141 150 145 143 149 149 148 149 143 141 146 136 136 133 132 130 123 117 111 107 106 104 103 104 107 108 108 109 108 106 104 103 104 107 105 107 107 106 102 102 102 102 100 94 86 82 81 75 68
127 283 354 274 177 18 318 59 186 204 202 128 114 127 158 142 213 232 115 184 141 127 15 68 350 29 128 102 135 159 156 137 131 135 142 165 141 150 243 139 155 137 127 142 148 142 143 155 149 148 143 148 144 146 147 147 143 139 133 129 131 130 132 131 124 117 109 105 101 97 95 103 109 110 111 109 109 108 109 110 111 111 111 109 109 106 105 105 106 105 101 91 87 83 79 74 64
1 337 332 306 331 69 93 320 34 44 55 91 123 138 145 89 9 55 355 193 71 122 147 27 46 83 340 249 172 177 148 130 134 138 150 152 140 161 212 103 114 118 136 150 144 145 154 152 153 146 160 161 152 156 151 151 146 137 132 127 133 127 127 128 119 112 110 106 102 95 87 82 80 85 95 99 95 93 93 98 106 109 112 112 112 113 111 109 110 107 102 89 85 82 78 72 64
342 4 340 322 272 149 23 226 106 349 119 112 177 128 136 90 17 128 67 39 117 34 298 81 332 63 62 65 75 128 129 127 130 137 149 141 150 192 137 109 134 110 136 150 138 153 150 151 156 149 162 174 161 165 163 147 148 142 139 133 130 125 123 117 118 114 113 111 109 106 102 94 90 88 87 88 91 93 96 102 108 110 114 115 114 114 114 113 111 108 98 89 84 79 72 64 56
236 100 301 176 293 158 177 118 115 89 123 124 162 152 152 145 168 53 201 262 177 136 143 129 117 76 74 103 99 109 115 117 122 137 132 125 143 189 127 128 153 124 68 149 147 156 148 156 140 148 166 173 160 166 162 149 149 145 143 138 128 117 117 119 115 114 115 118 115 115 111 107 104 99 89 89 87 95 105 106 109 110 112 115 116 117 116 113 113 108 98 93 88 80 69 60 51
280 174 159 274 241 291 148 99 117 159 128 150 169 176 155 134 148 130 73 66 280 123 210 100 64 64 100 116 111 102 113 128 147 144 142 144 170 174 151 163 161 154 146 196 145 146 153 160 163 170 166 182 158 164 145 151 148 155 149 142 128 119 117 123 126 132 132 133 135 132 128 136 118 94 91 92 90 92 93 98 103 108 113 114 117 117 118 118 115 108 103 99 93 87 78 65 54
166 207 182 245 269 16 4 69 40 36 109 163 161 191 204 168 150 150 156 196 189 199 208 149 132 102 100 118 118 131 140 145 159 161 155 162 182 178 171 172 186 151 165 180 167 170 165 164 172 173 174 169 161 147 158 152 160 168 149 152 129 132 138 140 142 145 147 150 164 162 148 153 119 113 97 80 81 83 90 97 102 106 111 113 117 118 118 116 111 108 104 100 95 87 78 71 53
258 50 235 233 72 84 40 57 79 56 345 134 145 175 224 108 139 119 213 205 171 204 195 178 184 163 156 153 149 143 161 159 174 170 168 170 182 178 181 184 186 189 162 172 171 181 189 163 186 193 172 163 163 163 152 170 167 166 151 164 144 147 155 154 154 162 157 166 178 195 139 102 109 107 101 98 92 85 78 78 86 93 97 100 101 105 106 111 112 112 117 109 88 79 79 70 65
37 120 280 9 315 55 33 57 55 42 12 106 125 95 234 135 125 157 183 274 217 203 210 178 201 178 168 161 158 152 163 168 178 185 177 177 181 187 191 189 189 191 165 161 156 176 201 173 169 218 176 154 160 159 160 174 163 162 155 165 161 157 166 165 162 174 165 174 185 173 102 115 119 119 121 116 106 103 101 103 100 97 99 95 93 96 102 106 106 114 102 73 63 62 57 51 59
134 204 89 4 5 69 20 70 26 10 293 60 95 133 214 90 68 176 240 209 236 198 318 228 189 195 153 157 164 157 166 170 180 190 189 184 184 186 185 191 185 195 157 170 172 172 188 207 176 189 191 155 161 161 165 166 159 168 163 159 169 162 171 168 171 174 168 169 187 156 126 130 127 131 141 137 130 130 134 145 131 132 122 118 118 122 138 153 160 122 79 63 56 61 60 56 57
226 167 81 48 15 86 22 75 4 325 1 123 155 35 51 112 182 193 226 230 150 141 92 50 49 107 146 145 149 164 169 178 183 191 191 189 191 191 187 190 181 184 175 177 173 180 184 211 200 176 190 156 165 161 158 145 169 173 165 165 168 173 167 167 174 176 171 167 180 162 148 147 138 148 156 142 141 150 164 163 150 148 146 141 156 159 175 162 106 84 79 77 72 69 64 61 59
290 65 92 43 20 70 34 92 252 15 349 50 26 289 288 139 242 193 204 218 237 100 100 91 57 102 130 146 165 172 178 181 192 193 193 195 190 192 187 189 182 167 171 174 172 182 188 205 197 172 190 159 161 162 150 148 176 178 171 170 184 175 167 174 175 179 177 170 168 162 166 156 153 161 168 149 154 161 174 166 153 156 161 170 182 174 156 117 103 99 103 101 96 84 82 73 70
200 199 116 96 74 85 81 104 83 56 59 43 19 1 235 239 266 23 258 245 255 130 116 106 107 115 137 144 170 176 182 187 191 193 198 206 198 191 198 194 174 167 185 181 173 181 188 194 204 190 184 167 164 168 160 164 178 190 159 166 183 166 174 175 175 175 180 174 174 167 168 166 162 161 168 157 161 169 175 161 153 170 174 178 162 165 144 131 128 130 130 123 110 101 91 83 79
211 78 105 132 103 115 131 108 111 171 103 17 5 220 245 84 9 255 245 239 229 163 126 131 131 133 174 164 174 178 184 190 188 187 196 193 199 191 195 198 183 180 188 180 177 187 173 182 202 202 188 176 174 174 170 156 166 198 214 171 177 166 178 176 170 176 183 177 176 173 170 175 169 165 170 170 168 176 171 153 156 179 178 166 154 153 147 140 146 144 133 128 120 108 93 86 83
351 128 109 120 130 121 285 167 117 118 50 133 306 291 215 52 97 276 25 263 190 140 157 154 149 171 183 183 177 185 184 190 190 186 175 184 200 205 198 195 196 187 174 182 181 184 178 179 195 190 193 191 176 174 176 167 173 179 195 194 156 175 181 174 172 178 182 185 176 179 180 174 173 167 171 174 174 172 161 155 162 174 169 164 154 147 140 147 149 140 134 129 124 117 113 104 97
116 96 90 92 159 126 161 195 130 156 119 261 290 279 309 144 137 239 207 226 136 151 173 174 181 197 201 199 194 191 191 192 182 172 185 184 195 199 201 196 195 188 177 182 179 175 187 186 183 182 187 202 183 180 180 181 174 172 173 168 205 192 182 174 167 176 183 183 177 179 184 172 176 175 172 177 177 166 160 163 161 167 169 159 142 141 142 146 141 136 125 120 121 117 114 109 98
135 159 143 168 144 180 177 185 176 219 102 262 31 301 261 173 224 236 193 150 154 183 191 200 196 205 215 212 199 194 197 190 178 186 195 194 192 193 202 201 191 192 186 177 173 178 182 175 171 182 184 199 193 184 180 182 160 165 168 179 190 196 195 180 172 174 178 181 181 182 189 185 174 180 179 178 182 172 159 167 163 170 163 152 142 140 134 125 126 119 115 118 115 113 110 105 98
129 247 293 144 185 232 197 145 124 166 109 168 72 340 251 223 226 242 154 158 157 170 203 196 198 203 207 208 201 197 194 189 193 196 195 192 188 192 200 199 194 193 180 167 166 181 176 175 175 180 191 197 192 189 180 177 171 165 170 182 186 189 190 184 174 173 178 181 184 186 192 194 183 178 181 181 180 175 170 166 161 166 164 150 141 137 132 133 133 128 131 123 125 119 117 114 109
175 181 134 231 141 279 151 160 169 179 142 177 72 225 286 294 352 167 142 149 159 196 207 220 218 208 195 195 197 196 203 198 204 197 193 192 189 189 193 191 189 188 179 174 180 180 175 178 176 185 188 194 187 197 189 177 182 189 184 174 183 182 186 188 192 181 179 183 179 187 189 194 196 182 181 180 183 175 179 167 159 170 159 140 143 139 133 131 138 141 135 125 121 117 117 117 117
210 80 281 283 232 118 199 27 161 194 236 223 142 271 258 275 226 83 112 112 173 220 235 231 228 223 207 186 189 195 208 206 211 207 196 194 191 189 183 191 186 183 186 185 181 175 177 177 178 184 184 192 190 197 199 194 196 186 185 188 173 179 182 187 194 199 177 177 173 178 187 194 194 194 176 177 184 179 177 173 170 165 162 143 146 142 139 146 156 143 142 144 133 142 129 121 117
214 167 236 188 218 170 194 250 58 41 120 238 175 233 323 322 101 131 168 156 165 209 250 258 241 228 218 200 192 197 206 212 208 205 201 194 199 190 184 186 189 187 179 177 181 182 181 181 180 186 185 192 193 193 196 198 198 188 182 187 200 180 180 187 194 194 191 183 172 175 184 191 196 199 181 172 181 186 174 173 171 168 163 156 154 148 146 149 157 148 145 154 144 146 138 129 124
217 170 252 229 177 169 208 20 248 19 265 186 222 254 240 264 234 158 256 194 177 203 223 234 239 229 224 214 203 202 204 208 207 200 201 195 199 198 190 186 187 183 181 179 181 186 187 182 181 187 187 190 192 189 188 184 187 184 192 195 192 186 183 176 179 181 194 188 184 180 181 188 197 199 190 174 179 185 177 174 170 167 165 159 157 153 149 149 156 154 147 155 154 149 149 140 136
186 179 218 261 132 287 275 162 179 186 140 284 232 224 248 257 276 266 220 206 200 207 217 222 229 235 242 231 219 210 206 208 216 195 195 194 191 197 192 184 183 180 179 178 179 185 186 183 175 183 184 184 183 172 173 173 175 182 189 204 215 217 199 177 168 180 188 184 194 192 183 188 192 198 193 177 177 182 180 174 168 167 166 163 160 159 147 153 159 167 158 149 151 146 156 142 136
9 192 190 208 170 212 230 77 160 265 178 210 237 252 260 255 259 257 253 215 206 224 230 235 235 234 238 235 231 225 218 220 212 193 188 190 188 186 187 179 183 180 176 178 178 181 186 184 178 181 186 181 179 167 162 169 168 181 191 206 225 225 210 193 182 178 180 194 190 197 196 189 188 194 195 181 181 179 183 175 171 172 171 166 167 166 162 163 171 168 171 152 139 111 103 126 128
19 350 27 331 9 38 79 81 25 313 355 255 242 253 258 261 262 268 265 277 266 237 232 232 228 230 230 233 233 229 222 225 206 199 184 186 185 182 178 172 178 175 175 181 183 186 188 189 178 186 188 179 177 177 176 175 181 185 193 201 207 203 201 190 195 176 185 196 190 196 196 193 187 191 192 181 183 176 179 175 172 179 179 173 172 178 175 174 174 168 157 160 146 139 136 133 135
24 19 8 331 104 296 47 129 198 359 17 295 308 289 272 270 270 268 265 262 254 246 251 251 247 237 229 228 235 232 233 241 208 207 187 177 173 170 167 167 169 173 192 186 190 192 189 187 186 184 180 186 187 187 181 184 188 192 188 196 191 192 189 187 197 193 181 188 200 200 197 184 184 187 188 183 179 174 171 174 175 176 174 182 179 174 168 163 158 157 151 138 163 149 152 159 157
19 39 345 325 290 153 92 76 246 176 124 261 279 302 280 271 274 273 263 252 244 232 228 233 233 240 242 237 234 232 221 225 204 198 175 169 164 162 165 176 186 190 187 189 192 186 187 192 192 182 184 188 190 186 180 190 186 185 181 184 178 178 185 182 183 194 182 177 196 203 203 196 186 184 182 173 174 175 170 172 178 174 177 171 163 162 156 150 160 165 168 158 156 134 138 167 171
352 185 195 256 269 57 293 18 8 264 207 274 345 304 285 273 252 252 250 240 242 237 236 237 222 232 235 236 227 212 215 213 204 190 184 168 164 166 169 182 192 185 185 190 187 191 193 196 192 185 188 190 189 189 184 179 171 159 156 146 153 146 177 188 202 194 198 188 195 200 212 201 192 186 183 174 175 177 170 174 171 175 178 175 172 163 166 163 162 166 167 174 155 144 161 184 198
206 227 239 240 186 147 95 145 252 220 244 33 314 288 281 255 248 258 257 242 238 239 235 236 235 226 235 252 267 225 218 206 204 194 182 167 169 182 187 188 172 183 188 191 192 194 198 198 195 188 184 188 188 181 170 152 136 137 135 102 106 81 52 156 183 224 205 200 199 204 211 211 204 184 182 184 177 181 176 173 175 180 180 181 177 173 171 172 173 175 175 169 181 166 167 174 196
253 203 197 216 279 310 124 76 22 354 324 335 1 352 292 323 330 300 299 9 236 221 214 232 228 244 249 250 245 250 249 227 199 196 185 175 181 188 183 173 181 192 197 198 191 192 186 189 189 182 179 176 182 178 164 153 158 158 160 162 165 175 183 179 199 202 197 197 202 188 191 201 209 195 180 184 186 179 178 177 176 177 182 181 180 178 177 173 177 176 184 181 187 191 165 168 179
245 290 0 3 300 32 83 329 49 300 212 263 244 97 287 302 281 263 295 282 251 240 222 230 220 228 232 232 230 229 229 234 236 218 184 160 187 175 179 181 187 192 204 178 181 189 189 183 186 181 178 174 173 167 164 156 162 174 182 191 192 193 193 207 194 202 206 211 171 181 194 195 203 194 190 183 188 186 180 179 178 181 182 184 183 180 181 183 183 185 183 187 194 182 169 172 179
249 318 345 344 99 95 193 168 171 241 355 290 143 168 220 307 289 154 234 227 286 287 257 238 226 230 230 222 202 212 215 205 193 201 210 181 167 170 178 186 186 191 179 170 179 184 189 185 179 180 174 170 171 157 167 166 168 177 177 190 196 201 202 194 177 196 213 196 199 190 178 199 203 198 189 186 186 185 185 181 181 181 183 185 180 187 188 186 184 190 192 194 190 188 184 179 180
192 239 292 16 53 105 105 147 215 186 57 296 175 191 57 247 275 280 218 278 262 258 256 245 240 240 233 213 181 155 139 136 144 164 172 175 156 163 163 174 184 168 170 174 179 180 181 178 172 171 175 166 171 160 165 174 172 176 176 183 198 207 187 195 174 184 194 189 202 186 184 192 197 199 194 188 188 185 184 184 184 186 184 182 182 188 189 184 186 183 186 193 197 199 195 191 177
256 210 73 87 72 72 76 224 92 316 82 259 183 192 224 264 251 288 259 211 264 258 260 255 260 233 173 142 120 119 108 100 108 137 130 136 145 131 144 153 157 171 167 164 165 166 176 174 173 173 182 169 167 168 164 178 179 172 180 185 191 196 193 206 197 192 195 182 198 193 188 184 193 194 199 194 190 188 185 184 188 188 186 179 181 186 182 183 185 185 189 193 193 198 202 196 190
135 164 111 96 105 102 333 75 80 25 261 243 182 199 182 285 226 227 273 222 212 225 270 72 64 57 61 94 123 133 145 145 151 128 124 116 105 111 107 133 149 136 147 152 162 166 170 172 173 176 184 170 169 177 171 181 183 182 186 186 189 192 192 194 206 210 191 188 197 196 191 189 185 194 186 197 195 193 192 188 189 189 183 176 181 184 185 186 187 188 188 188 194 203 212 209 198
118 153 150 130 298 47 26 324 63 203 264 358 300 191 190 226 275 238 238 245 110 152 262 149 115 124 125 142 149 165 153 162 161 147 145 134 120 126 134 145 149 152 147 159 166 161 166 173 171 179 190 183 178 178 177 181 183 192 194 189 193 194 190 195 200 208 194 195 196 194 189 182 187 184 187 191 196 194 189 199 203 182 179 174 183 186 185 188 186 186 186 192 197 197 196 207 210
347 104 87 105 248 73 307 106 245 205 235 238 354 348 0 248 225 280 322 300 278 182 223 135 128 162 175 174 187 173 151 156 161 161 161 167 180 178 183 184 164 166 174 175 172 169 172 179 181 183 197 190 184 177 182 183 184 195 198 200 200 194 201 202 201 207 196 195 195 194 183 193 183 184 194 192 199 186 182 188 198 185 170 176 180 185 187 185 184 185 188 191 197 197 197 194 198
202 161 159 129 207 211 240 229 203 246 304 280 353 354 261 288 298 204 229 244 255 256 229 62 104 163 163 192 185 171 194 187 181 167 172 184 186 196 194 189 188 176 175 178 177 177 181 184 188 189 197 191 183 181 182 186 194 195 197 201 201 195 208 207 208 206 197 192 188 198 193 195 195 199 189 199 188 180 187 193 195 195 180 174 179 186 183 187 186 188 190 193 198 201 198 198 200
200 193 161 177 163 174 214 178 205 215 209 318 288 61 234 100 238 308 285 295 300 304 262 182 203 227 211 108 148 172 193 211 202 191 187 185 187 182 192 192 188 184 177 178 181 183 181 188 189 191 193 194 189 187 185 190 192 193 196 200 200 198 205 208 211 202 198 190 190 195 197 194 200 199 195 192 169 180 188 188 194 194 190 185 183 183 179 178 184 189 195 199 200 200 200 195 196
217 209 208 234 225 84 203 186 134 281 12 317 259 216 233 189 307 265 290 313 311 313 303 320 301 346 91 218 231 223 209 205 201 212 226 223 205 200 193 186 183 182 181 180 184 183 187 190 189 194 193 192 193 190 191 190 193 191 197 199 204 201 201 204 209 204 211 199 194 190 198 198 197 188 191 175 187 186 188 189 188 195 192 191 190 190 184 181 183 179 183 188 199 189 189 187 186
222 154 217 201 44 86 19 7 33 111 28 255 171 291 261 288 273 259 261 254 245 251 294 322 293 297 265 256 258 233 223 217 209 217 234 232 221 207 193 184 181 178 183 188 187 186 185 182 187 193 196 196 197 196 189 184 188 193 201 199 198 202 203 205 202 201 202 203 200 199 195 194 187 190 193 188 185 189 187 186 189 188 185 188 185 188 182 184 181 185 185 184 193 194 178 187 170
103 188 220 62 41 92 145 219 30 186 213 265 135 246 284 23 292 305 215 260 282 230 248 258 280 278 281 272 277 288 214 208 209 215 225 231 218 203 193 190 189 191 190 186 188 185 186 185 185 187 191 197 200 193 190 187 190 197 199 201 202 203 207 209 202 200 197 202 206 204 197 190 194 189 191 190 182 180 182 181 183 185 183 182 187 184 183 182 176 184 190 197 196 180 178 169 169
118 182 321 131 246 264 262 103 249 246 242 285 259 243 269 232 252 301 319 264 257 246 227 218 236 259 268 290 297 279 201 207 228 236 233 228 214 205 198 196 198 194 191 188 183 180 182 188 187 188 195 197 194 193 193 195 193 198 198 200 201 204 202 200 197 195 198 207 210 207 203 195 185 181 178 177 170 175 177 179 177 177 173 181 181 184 177 176 180 184 188 192 186 180 173 175 174
41 11 14 112 100 174 158 196 215 116 245 217 275 276 262 236 246 126 231 212 209 197 193 192 176 157 256 276 323 313 301 268 248 231 224 214 213 208 197 191 194 192 186 185 183 179 187 187 183 190 194 195 196 198 195 200 198 194 197 198 205 203 200 196 191 192 201 205 205 201 200 194 189 175 179 168 174 179 179 179 179 175 177 176 181 185 177 178 174 188 184 185 187 177 177 175 170
258 50 258 212 135 308 111 308 184 175 201 203 264 285 251 255 178 217 243 243 260 160 125 88 67 41 16 338 291 303 302 296 305 280 237 219 211 208 198 191 197 192 179 174 182 190 190 185 189 189 193 197 203 204 198 205 194 200 193 201 202 199 200 195 198 198 201 202 195 192 192 189 170 190 168 173 177 178 177 177 176 179 179 178 183 185 183 178 180 185 188 186 182 178 172 170 158
185 185 203 192 162 182 210 257 169 187 195 220 219 255 278 252 103 60 78 89 90 66 82 48 355 343 320 304 285 256 269 280 275 283 268 243 193 168 159 153 168 173 183 188 195 183 191 194 192 192 196 205 202 205 203 199 199 198 203 203 202 200 192 192 197 200 200 199 192 188 185 173 186 183 173 177 180 178 175 173 177 181 180 180 186 188 181 177 181 187 191 184 182 176 170 164 161